TimeEDT,TemperatureF,Dew PointF,Humidity,Sea Level PressureIn,VisibilityMPH,Wind Direction,Wind SpeedMPH,Gust SpeedMPH,PrecipitationIn,Events,Conditions,WindDirDegrees,DateUTC
12:54 AM,48.9,46.0,90,30.09,10.0,Calm,Calm,-,N/A,,Mostly Cloudy,0,2012-10-10 04:54:00
1:54 AM,50.0,46.9,89,30.08,10.0,Calm,Calm,-,N/A,,Overcast,0,2012-10-10 05:54:00
2:54 AM,50.0,46.9,89,30.07,10.0,Calm,Calm,-,N/A,,Overcast,0,2012-10-10 06:54:00
3:54 AM,50.0,46.9,89,30.05,10.0,Calm,Calm,-,N/A,,Mostly Cloudy,0,2012-10-10 07:54:00
4:54 AM,46.9,45.0,93,30.05,10.0,Calm,Calm,-,N/A,,Partly Cloudy,0,2012-10-10 08:54:00
5:54 AM,46.9,45.0,93,30.04,3.0,Calm,Calm,-,N/A,,Partly Cloudy,0,2012-10-10 09:54:00
6:54 AM,48.0,44.1,86,30.06,10.0,NW,6.9,-,N/A,,Clear,310,2012-10-10 10:54:00
7:54 AM,50.0,44.1,80,30.06,10.0,Calm,Calm,-,N/A,,Partly Cloudy,0,2012-10-10 11:54:00
8:54 AM,53.1,45.0,74,30.06,10.0,West,6.9,-,N/A,,Partly Cloudy,270,2012-10-10 12:54:00
9:54 AM,55.9,46.0,69,30.06,10.0,WSW,8.1,-,N/A,,Partly Cloudy,250,2012-10-10 13:54:00
10:54 AM,61.0,46.0,58,30.04,10.0,West,8.1,-,N/A,,Partly Cloudy,260,2012-10-10 14:54:00
11:54 AM,62.1,46.0,56,30.04,10.0,WSW,8.1,-,N/A,,Overcast,250,2012-10-10 15:54:00
12:54 PM,63.0,45.0,52,30.03,10.0,WNW,17.3,25.3,N/A,,Mostly Cloudy,290,2012-10-10 16:54:00
1:54 PM,64.9,46.0,50,30.01,10.0,WNW,18.4,32.2,N/A,,Mostly Cloudy,290,2012-10-10 17:54:00
2:54 PM,63.0,45.0,52,30.00,10.0,West,12.7,21.9,N/A,,Mostly Cloudy,280,2012-10-10 18:54:00
3:54 PM,64.9,46.0,50,30.00,10.0,WNW,9.2,18.4,N/A,,Scattered Clouds,290,2012-10-10 19:54:00
4:54 PM,64.0,46.0,52,30.00,10.0,WNW,11.5,18.4,N/A,,Mostly Cloudy,290,2012-10-10 20:54:00
5:54 PM,60.1,46.0,60,30.01,10.0,West,12.7,-,N/A,,Mostly Cloudy,280,2012-10-10 21:54:00
6:54 PM,61.0,44.1,54,30.03,10.0,West,12.7,20.7,N/A,,Scattered Clouds,280,2012-10-10 22:54:00
7:54 PM,59.0,42.1,53,30.06,10.0,West,12.7,26.5,N/A,,Scattered Clouds,280,2012-10-10 23:54:00
8:54 PM,57.9,39.0,49,30.09,10.0,WNW,12.7,23.0,N/A,,Partly Cloudy,290,2012-10-11 00:54:00
9:54 PM,55.9,37.0,49,30.12,10.0,West,12.7,20.7,N/A,,Partly Cloudy,280,2012-10-11 01:54:00
10:54 PM,53.1,37.9,57,30.14,10.0,NW,6.9,-,N/A,,Partly Cloudy,310,2012-10-11 02:54:00
11:54 PM,53.1,36.0,52,30.16,10.0,WNW,11.5,18.4,N/A,,Partly Cloudy,290,2012-10-11 03:54:00